{"data":{"norad_id":63840,"intl_designator":"2025-093E","name":"STARLINK-33990","alt_names":[],"object_type":"PAYLOAD","status":"ACTIVE","operator":null,"country":"US","launch_date":"2025-05-07","launch_site_code":"AFETR","launch_vehicle":null,"mission":null,"orbit_class":"UNKNOWN","rcs_meters":null,"size_class":null,"mass_kg":null,"dimensions":null,"purposes":["comms"],"wikipedia_slug":null,"has_3d_model":false,"image_url":null,"decayed_at":null,"tle_current":{"epoch":"2026-05-25T00:02:50.915616Z","epoch_age_seconds":65146,"freshness":"FRESH","line1":"1 63840U 25093E   26145.00197819  .00013708  00000+0  50650-3 0  9990","line2":"2 63840  43.0034   6.8780 0001382 270.8278  89.2415 15.27596423 59427","mean_motion":15.27596423,"eccentricity":0.0001382,"inclination_deg":43.0034,"raan_deg":6.878,"arg_perigee_deg":270.8278,"mean_anomaly_deg":89.2415,"bstar":0.0005065,"rev_number":5942,"period_min":94.265735263508,"perigee_km":482.05171098772,"apogee_km":483.94812923244,"semimajor_km":6861.1369201101,"source":"CELESTRAK","updated_at":"2026-05-25T13:38:20.146654Z"}}}